SKYSAT C6

导读 | 豆包AI

SKYSAT C6是美国于2017年10月31日发射的高分辨率对地观测卫星,隶属于Skysat系列卫星星座。该卫星聚焦遥感成像任务,搭载先进光学载荷,可获取亚米级分辨率地表影像,服务于城市规划、灾害监测、资源勘探等多个领域。作为美国商业遥感卫星布局的一部分,它进一步提升了全球高分辨率对地观测的数据获取能力,在民用与商用场景中发挥重要作用。

Basic Information
目录编号:
42992
目录名称:
SKYSAT C6
国际标识:
2017-068F
轨道中心:
EARTH
卫星名称:
SKYSAT C6
卫星全名:
--
卫星状态:
在轨 (已飞行3101 天)
发射日期:
2017-10-31 UTC
国别 :
美国 (US)
星等 :
--
Orbit Information
数据来源 国际轨道数据 AOE轨道数据
星历时间 2026-04-28T16:57:43+0800
12小时前
查看轨道信息
2026-04-27T04:00:00+0800
2天前
查看轨道信息
半长轴 6843.302km 6843.386km
偏心率 0.0001641 0.0001895
轨道倾角 97.449° 97.451°
近地点辐角 354.815° 359.091°
升交点赤经 255.526° 253.973°
平近点角 5.308° 144.053°
近地点 464.042km 463.952km
远地点 466.288km 466.546km
周期 93.898分钟 93.900分钟
每日圈数 15.335724 15.335441
Detailed Information
使用方式:
暂无
2D Orbit Map
3D Orbit Map
Orbit Altitude Analysis Chart
Orbit Inclination Analysis Chart
Orbit Comprehensive Analysis Chart
View Comprehensive Chart